| time (UTC) | temp F | wind direction | speed MPH | gust MPH | rain 1hr in | rain 24hr in | rain mn in | humidity % | barometer mb |
| 20260510081532 | 0 | 81 | 2.0 | 2.0 | 0.00 | 0.00 | 0.00 | ||
| 20260510080636 | 67 | 75 | 2.0 | 8.0 | 0.00 | 0.00 | 0.00 | 98 | 1013.1 |
| 20260510075956 | 67 | 81 | 5.0 | 8.0 | 0.00 | 0.00 | 0.00 | 97 | 1013.1 |
| 20260510075316 | 67 | 81 | 3.0 | 10.0 | 0.00 | 0.00 | 0.00 | 98 | 1013.0 |
| 20260510074636 | 67 | 80 | 5.0 | 10.0 | 0.00 | 0.00 | 0.00 | 97 | 1013.0 |
| 20260510073956 | 0 | 81 | 4.0 | 4.0 | 0.00 | 0.00 | 0.00 | ||
| 20260510072847 | 0 | 81 | 4.0 | 4.0 | 0.00 | 0.00 | 0.00 | ||
| 20260510071953 | 0 | 82 | 3.0 | 4.0 | 0.00 | 0.00 | 0.00 | ||
| 20260510070845 | 67 | 82 | 2.0 | 7.0 | 0.00 | 0.00 | 0.00 | 97 | 1012.8 |
| 20260510070205 | 0 | 81 | 4.0 | 5.0 | 0.00 | 0.00 | 0.00 | ||
| 20260510065312 | 67 | 81 | 3.0 | 7.0 | 0.00 | 0.00 | 0.00 | 97 | 1012.9 |
| 20260510064632 | 67 | 81 | 4.0 | 7.0 | 0.00 | 0.00 | 0.00 | 97 | 1012.8 |
| 20260510063952 | 0 | 81 | 4.0 | 5.0 | 0.00 | 0.00 | 0.00 | ||
| 20260510063058 | 67 | 82 | 3.0 | 5.0 | 0.00 | 0.00 | 0.00 | 97 | 1012.9 |
| 20260510062418 | 67 | 80 | 2.0 | 5.0 | 0.00 | 0.00 | 0.00 | 97 | 1012.9 |
| 20260510061738 | 68 | 81 | 3.0 | 5.0 | 0.00 | 0.00 | 0.00 | 97 | 1013.0 |
| 20260510061058 | 0 | 82 | 2.0 | 2.0 | 0.00 | 0.00 | 0.00 | ||
| 20260510055916 | 68 | 78 | 2.0 | 5.0 | 0.00 | 0.00 | 0.00 | 97 | 1013.1 |
| 20260510055236 | 0 | 78 | 6.0 | 0.0 | 0.00 | 0.00 | 0.00 | ||
| 20260510054309 | 68 | 80 | 6.0 | 9.0 | 0.00 | 0.00 | 0.00 | 97 | 1013.2 |
| 20260510053629 | 0 | 81 | 6.0 | 7.0 | 0.00 | 0.00 | 0.00 | ||
| 20260510051031 | 0 | 80 | 8.0 | 3.0 | 0.00 | 0.00 | 0.00 | ||
| 20260510050137 | 69 | 80 | 4.0 | 6.0 | 0.00 | 0.00 | 0.00 | 96 | 1012.6 |
| 20260510045457 | 69 | 28 | 2.0 | 10.0 | 0.00 | 0.00 | 1.82 | 97 | 1012.4 |
| 20260510044817 | 69 | 354 | 2.0 | 17.0 | 0.00 | 0.00 | 1.82 | 97 | 1012.3 |
| 20260510044137 | 69 | 257 | 7.0 | 17.0 | 0.00 | 0.00 | 1.82 | 98 | 1012.2 |
| 20260510043457 | 69 | 258 | 9.0 | 20.0 | 0.00 | 0.00 | 1.82 | 98 | 1012.0 |
| 20260510042817 | 0 | 257 | 9.0 | 12.0 | 0.00 | 0.00 | 1.82 | ||
| 20260510041924 | 69 | 257 | 11.0 | 26.0 | 0.00 | 0.00 | 1.82 | 98 | 1011.9 |
| 20260510041244 | 69 | 258 | 13.0 | 27.0 | 0.00 | 0.00 | 1.82 | 98 | 1012.0 |
| 20260510040604 | 0 | 258 | 13.0 | 14.0 | 0.00 | 0.00 | 1.82 | ||
| 20260510035041 | 68 | 259 | 10.0 | 19.0 | 0.00 | 0.00 | 1.82 | 99 | 1012.7 |
| 20260510034401 | 68 | 258 | 8.0 | 18.0 | 0.00 | 0.00 | 1.82 | 99 | 1012.9 |
| 20260510033733 | 68 | 258 | 10.0 | 18.0 | 0.00 | 0.00 | 1.82 | 99 | 1012.9 |
| 20260510033041 | 0 | 258 | 11.0 | 11.0 | 0.00 | 0.00 | 1.82 | ||
| 20260510032117 | 0 | 258 | 9.0 | 6.0 | 0.00 | 0.00 | 1.82 | ||
| 20260510031151 | 68 | 258 | 7.0 | 13.0 | 0.00 | 0.00 | 1.82 | 99 | 1013.4 |
| 20260510030511 | 0 | 258 | 11.0 | 11.0 | 0.00 | 0.00 | 1.82 | ||
| 20260510024940 | 68 | 257 | 3.0 | 5.0 | 0.00 | 0.00 | 1.82 | 100 | 1013.8 |
| 20260510024300 | 0 | 258 | 3.0 | 4.0 | 0.00 | 0.00 | 1.82 | ||
| 20260510023406 | 0 | 257 | 6.0 | 6.0 | 0.00 | 0.00 | 1.82 | ||
| 20260510021727 | 0 | 10 | 0.0 | 1.0 | 0.00 | 0.00 | 1.82 | ||
| 20260510020831 | 68 | 83 | 2.0 | 4.0 | 0.00 | 0.00 | 1.82 | 100 | 1013.7 |
| 20260510020151 | 0 | 37 | 1.0 | 1.0 | 0.00 | 0.00 | 1.82 | ||
| 20260510014939 | 0 | 3 | 0.0 | 1.0 | 0.00 | 0.00 | 1.82 | ||
| 20260510013756 | 68 | 13 | 0.0 | 4.0 | 0.00 | 0.00 | 1.82 | 100 | 1013.5 |
| 20260510013116 | 0 | 83 | 4.0 | 4.0 | 0.00 | 0.00 | 1.82 | ||
| 20260510011835 | 69 | 299 | 1.0 | 3.0 | 0.00 | 0.00 | 1.82 | 100 | 1013.5 |
| 20260510011155 | 68 | 53 | 1.0 | 7.0 | 0.00 | 0.00 | 1.82 | 100 | 1013.2 |
| 20260510010515 | 68 | 271 | 2.0 | 8.0 | 0.00 | 0.00 | 1.82 | 100 | 1013.0 |
| 20260510005835 | 68 | 269 | 2.0 | 8.0 | 0.00 | 0.00 | 1.82 | 100 | 1012.9 |
| 20260510005155 | 68 | 266 | 2.0 | 8.0 | 0.00 | 0.00 | 1.82 | 100 | 1012.8 |
| 20260510004515 | 0 | 262 | 4.0 | 5.0 | 0.00 | 0.00 | 1.82 | ||
| 20260510003622 | 68 | 262 | 3.0 | 11.0 | 0.00 | 0.00 | 1.82 | 100 | 1012.6 |
| 20260510002942 | 68 | 261 | 4.0 | 10.0 | 0.00 | 0.00 | 1.82 | 100 | 1012.3 |
| 20260510002302 | 0 | 279 | 2.0 | 3.0 | 0.00 | 0.00 | 1.82 | ||
| 20260510001153 | 0 | 261 | 6.0 | 3.0 | 0.00 | 0.00 | 1.82 | ||
| 20260509235526 | 0 | 263 | 5.0 | 2.0 | 0.00 | 0.00 | 1.82 | ||
| 20260509233730 | 68 | 260 | 4.0 | 10.0 | 0.00 | 0.00 | 1.82 | 100 | 1011.8 |
| 20260509233050 | 67 | 263 | 4.0 | 11.0 | 0.00 | 0.00 | 1.82 | 100 | 1012.0 |
| 20260509232410 | 68 | 260 | 5.0 | 11.0 | 0.00 | 0.00 | 1.82 | 100 | 1012.0 |
| 20260509231730 | 67 | 260 | 4.0 | 8.0 | 0.00 | 0.00 | 1.82 | 100 | 1011.8 |
| 20260509231050 | 0 | 267 | 2.0 | 5.0 | 0.00 | 0.00 | 1.82 | ||
| 20260509225653 | 0 | 337 | 1.0 | 0.0 | 0.00 | 0.00 | 1.82 | ||
| 20260509224759 | 0 | 289 | 2.0 | 3.0 | 0.00 | 0.00 | 1.82 | ||
| 20260509223905 | 0 | 262 | 4.0 | 1.0 | 0.00 | 0.00 | 1.82 | ||
| 20260509222939 | 67 | 258 | 3.0 | 9.0 | 0.00 | 0.00 | 1.81 | 100 | 1012.5 |
| 20260509222259 | 67 | 257 | 6.0 | 9.0 | 0.00 | 0.00 | 1.80 | 100 | 1012.5 |
| 20260509221619 | 67 | 316 | 1.0 | 3.0 | 0.00 | 0.00 | 1.79 | 100 | 1011.9 |
| 20260509220939 | 0 | 82 | 3.0 | 2.0 | 0.00 | 0.00 | 1.79 | ||
| 20260509215758 | 0 | 352 | 0.0 | 1.0 | 0.00 | 0.00 | 1.78 | ||
| 20260509214904 | 0 | 258 | 2.0 | 2.0 | 0.00 | 0.00 | 1.78 | ||
| 20260509213621 | 67 | 256 | 3.0 | 6.0 | 0.00 | 0.00 | 1.78 | 100 | 1012.1 |
| 20260509212941 | 0 | 81 | 4.0 | 3.0 | 0.00 | 0.00 | 1.77 | ||
| 20260509212045 | 66 | 81 | 2.0 | 4.0 | 0.00 | 0.00 | 1.76 | 100 | 1012.3 |
| 20260509211405 | 0 | 81 | 5.0 | 3.0 | 0.00 | 0.00 | 1.75 | ||
| 20260509210509 | 67 | 79 | 1.0 | 2.0 | 0.00 | 0.00 | 1.70 | 100 | 1012.7 |
| 20260509205829 | 0 | 10 | 0.0 | 1.0 | 0.00 | 0.00 | 1.67 | ||
| 20260509204934 | 67 | 255 | 2.0 | 5.0 | 0.00 | 0.00 | 1.65 | 100 | 1012.6 |
| 20260509204254 | 0 | 324 | 1.0 | 3.0 | 0.00 | 0.00 | 1.64 | ||
| 20260509202939 | 67 | 340 | 1.0 | 5.0 | 0.00 | 0.00 | 1.63 | 100 | 1012.1 |
| 20260509202259 | 0 | 61 | 2.0 | 1.0 | 0.00 | 0.00 | 1.63 | ||
| 20260509200653 | 0 | 270 | 2.0 | 1.0 | 0.00 | 0.00 | 1.63 | ||
| 20260509195259 | 67 | 332 | 1.0 | 7.0 | 0.00 | 0.00 | 1.62 | 100 | 1011.7 |
| 20260509194619 | 67 | 274 | 2.0 | 7.0 | 0.00 | 0.00 | 1.61 | 100 | 1012.0 |
| 20260509193939 | 67 | 287 | 1.0 | 5.0 | 0.00 | 0.00 | 1.60 | 100 | 1012.2 |
| 20260509193259 | 0 | 261 | 3.0 | 1.0 | 0.00 | 0.00 | 1.58 | ||
| 20260509190721 | 0 | 256 | 3.0 | 4.0 | 0.00 | 0.00 | 1.51 | ||
| 20260509185825 | 67 | 265 | 2.0 | 7.0 | 0.00 | 0.00 | 1.49 | 100 | 1013.6 |
| 20260509185145 | 0 | 263 | 3.0 | 3.0 | 0.00 | 0.00 | 1.48 | ||
| 20260509184039 | 0 | 258 | 4.0 | 4.0 | 0.00 | 0.00 | 1.44 | ||
| 20260509182430 | 67 | 257 | 8.0 | 15.0 | 0.00 | 0.00 | 1.38 | 99 | 1013.3 |
| 20260509181750 | 67 | 284 | 2.0 | 8.0 | 0.00 | 0.00 | 1.35 | 99 | 1013.2 |
| 20260509181110 | 0 | 265 | 2.0 | 0.0 | 0.00 | 0.00 | 1.27 | ||
| 20260509175959 | 0 | 257 | 6.0 | 7.0 | 0.00 | 0.00 | 1.25 | ||
| 20260509175105 | 0 | 258 | 6.0 | 9.0 | 0.00 | 0.00 | 1.23 | ||
| 20260509173959 | 67 | 275 | 3.0 | 10.0 | 0.00 | 0.00 | 1.22 | 99 | 1012.3 |
| 20260509173319 | 67 | 309 | 1.0 | 13.0 | 0.00 | 0.00 | 1.21 | 99 | 1013.2 |
| 20260509172639 | 0 | 258 | 6.0 | 12.0 | 0.00 | 0.00 | 1.20 | ||
| 20260509171740 | 0 | 260 | 2.0 | 4.0 | 0.00 | 0.00 | 1.19 | ||
| 20260509170847 | 0 | 258 | 3.0 | 5.0 | 0.00 | 0.00 | 1.16 | ||
| 20260509165921 | 67 | 357 | 2.0 | 11.0 | 0.00 | 0.00 | 1.14 | 99 | 1013.0 |
| 20260509165241 | 0 | 296 | 2.0 | 1.0 | 0.00 | 0.00 | 1.14 | ||
| 20260509164347 | 0 | 50 | 2.0 | 2.0 | 0.00 | 0.00 | 1.10 | ||
| 20260509162737 | 0 | 258 | 11.0 | 3.0 | 0.00 | 0.00 | 1.09 | ||
| 20260509161412 | 0 | 266 | 3.0 | 4.0 | 0.00 | 0.00 | 1.06 | ||
| 20260509160447 | 0 | 322 | 2.0 | 2.0 | 0.00 | 0.00 | 1.05 | ||
| 20260509154623 | 66 | 68 | 2.0 | 10.0 | 0.00 | 0.00 | 1.04 | 98 | 1013.4 |
| 20260509153943 | 0 | 70 | 4.0 | 10.0 | 0.00 | 0.00 | 1.00 | ||
| 20260509153049 | 0 | 265 | 2.0 | 3.0 | 0.00 | 0.00 | 0.96 | ||
| 20260509151938 | 0 | 11 | 1.0 | 1.0 | 0.00 | 0.00 | 0.94 | ||
| 20260509151014 | 0 | 36 | 1.0 | 0.0 | 0.00 | 0.00 | 0.93 | ||
| 20260509150118 | 0 | 262 | 2.0 | 3.0 | 0.00 | 0.00 | 0.93 | ||
| 20260509145358 | 65 | 358 | 1.0 | 6.0 | 0.00 | 0.00 | 0.87 | 97 | 1013.4 |
| 20260509144718 | 65 | 342 | 1.0 | 6.0 | 0.00 | 0.00 | 0.78 | 96 | 1013.7 |
| 20260509144038 | 0 | 283 | 2.0 | 5.0 | 0.00 | 0.00 | 0.69 | ||
| 20260509143111 | 65 | 256 | 4.0 | 9.0 | 0.00 | 0.00 | 0.59 | 97 | 1013.8 |
| 20260509142431 | 0 | 269 | 3.0 | 8.0 | 0.00 | 0.00 | 0.57 | ||
| 20260509141537 | 0 | 82 | 3.0 | 3.0 | 0.00 | 0.00 | 0.51 | ||
| 20260509140254 | 65 | 358 | 1.0 | 5.0 | 0.00 | 0.00 | 0.44 | 96 | 1013.1 |
| 20260509135614 | 65 | 349 | 1.0 | 5.0 | 0.00 | 0.00 | 0.42 | 97 | 1013.4 |
| 20260509134943 | 65 | 357 | 1.0 | 7.0 | 0.00 | 0.00 | 0.39 | 97 | 1013.4 |
| 20260509134258 | 0 | 76 | 3.0 | 5.0 | 0.00 | 0.00 | 0.38 | ||
| 20260509132757 | 0 | 79 | 7.0 | 12.0 | 0.00 | 0.00 | 0.37 | ||
| 20260509131902 | 65 | 80 | 16.0 | 34.0 | 0.00 | 0.00 | 0.33 | 96 | 1013.0 |
| 20260509131222 | 65 | 80 | 21.0 | 34.0 | 0.00 | 0.00 | 0.26 | 95 | 1013.0 |
| 20260509130542 | 65 | 79 | 17.0 | 30.0 | 0.00 | 0.00 | 0.25 | 95 | 1013.5 |
| 20260509125902 | 0 | 79 | 16.0 | 18.0 | 0.00 | 0.00 | 0.14 | ||
| 20260509123534 | 0 | 78 | 32.0 | 22.0 | 0.00 | 0.00 | 0.00 | ||
| 20260509122609 | 74 | 79 | 2.0 | 6.0 | 0.00 | 0.00 | 0.00 | 89 | 1012.0 |
| 20260509121929 | 74 | 257 | 3.0 | 5.0 | 0.00 | 0.00 | 0.00 | 89 | 1011.6 |
| 20260509121249 | 0 | 254 | 3.0 | 2.0 | 0.00 | 0.00 | 0.00 | ||
| 20260509120112 | 73 | 256 | 4.0 | 9.0 | 0.00 | 0.00 | 0.00 | 90 | 1011.3 |
| 20260509115431 | 0 | 257 | 6.0 | 4.0 | 0.00 | 0.00 | 0.00 | ||
| 20260509114251 | 73 | 256 | 5.0 | 16.0 | 0.00 | 0.00 | 0.00 | 90 | 1010.7 |
| 20260509113611 | 73 | 257 | 9.0 | 16.0 | 0.00 | 0.00 | 0.00 | 89 | 1010.7 |
| 20260509112931 | 0 | 259 | 5.0 | 5.0 | 0.00 | 0.00 | 0.00 | ||
| 20260509111821 | 0 | 260 | 4.0 | 0.0 | 0.00 | 0.00 | 0.00 | ||
| 20260509110927 | 0 | 263 | 2.0 | 1.0 | 0.00 | 0.00 | 0.00 | ||
| 20260509110034 | 73 | 260 | 4.0 | 9.0 | 0.00 | 0.00 | 0.00 | 88 | 1010.4 |
| 20260509105354 | 73 | 261 | 2.0 | 6.0 | 0.00 | 0.00 | 0.00 | 88 | 1010.1 |
| 20260509104714 | 0 | 263 | 3.0 | 1.0 | 0.00 | 0.00 | 0.00 | ||
| 20260509103818 | 73 | 277 | 1.0 | 5.0 | 0.00 | 0.00 | 0.00 | 87 | 1010.4 |
| 20260509103138 | 0 | 271 | 2.0 | 0.0 | 0.00 | 0.00 | 0.00 | ||
| 20260509102244 | 74 | 265 | 2.0 | 6.0 | 0.00 | 0.00 | 0.00 | 87 | 1010.3 |
| 20260509101608 | 73 | 272 | 2.0 | 6.0 | 0.00 | 0.00 | 0.00 | 86 | 1010.1 |
| 20260509100924 | 0 | 261 | 3.0 | 0.0 | 0.00 | 0.00 | 0.00 | ||
| 20260509095601 | 0 | 261 | 2.0 | 1.0 | 0.00 | 0.00 | 0.00 | ||
| 20260509094707 | 0 | 296 | 1.0 | 0.0 | 0.00 | 0.00 | 0.00 | ||
| 20260509093813 | 0 | 312 | 1.0 | 1.0 | 0.00 | 0.00 | 0.00 | ||
| 20260509092919 | 0 | 277 | 1.0 | 0.0 | 0.00 | 0.00 | 0.00 | ||
| 20260509091710 | 72 | 283 | 2.0 | 6.0 | 0.00 | 0.00 | 0.00 | 88 | 1010.0 |
| 20260509091030 | 0 | 273 | 2.0 | 1.0 | 0.00 | 0.00 | 0.00 | ||
| 20260509090135 | 72 | 303 | 2.0 | 6.0 | 0.00 | 0.00 | 0.00 | 88 | 1009.9 |
| 20260509085455 | 0 | 267 | 2.0 | 3.0 | 0.00 | 0.00 | 0.00 | ||
| 20260509084344 | 72 | 316 | 1.0 | 6.0 | 0.00 | 0.00 | 0.00 | 89 | 1010.3 |
| 20260509083704 | 0 | 269 | 1.0 | 0.0 | 0.00 | 0.00 | 0.00 | ||
| 20260509082340 | 72 | 266 | 3.0 | 8.0 | 0.00 | 0.00 | 0.00 | 91 | 1010.5 |
| 20260509081700 | 0 | 261 | 2.0 | 1.0 | 0.00 | 0.00 | 0.00 |